Weather History for Flora, IL

Change the Weather History Date:

Thursday, September 26, 2013

  Actual Average (KEVV) Record (KEVV)
Temperature  
Mean Temperature 69 °F 65 °F  
Max Temperature 82 °F 77 °F 94 °F (1897)
Min Temperature 56 °F 52 °F 37 °F (2001)
Degree Days  
Heating Degree Days 0 3  
Month to date heating degree days 29  
Since 1 July heating degree days 30  
Cooling Degree Days 4 3  
Month to date cooling degree days 156  
Year to date cooling degree days 1355  
Growing Degree Days 19 (Base 50)    
Moisture  
Dew Point 56 °F    
Average Humidity 70    
Maximum Humidity 98    
Minimum Humidity 35    
Precipitation  
Precipitation 0.00 in 0.11 in 1.64 in (2002)
Month to date precipitation 2.63  
Year to date precipitation 33.55  
Snow  
Snow 0.00 in 0.00 in - ()
Month to date snowfall 0.0  
Since 1 July snowfall 0.0  
Since 1 September snowfall 0.0  
Snow Depth -    
Sea Level Pressure  
Sea Level Pressure 30.00 in    
Wind  
Wind Speed 2 mph (ENE)    
Max Wind Speed 9 mph    
Max Gust Speed -    
Visibility 9 miles    
Events      
T = Trace of Precipitation, MM = Missing Value Source: NWS Daily Summary

Daily Weather History Graph

Daily Weather History Graph

Search for Another Location

Airport:

Trip Planner

Search our weather history database for the weather conditions in past years. The results will help you decide how hot, cold, wet, or windy it might be!

Date:

Astronomy

Sep. 26, 2013 Rise Set
Actual Time 6:45 AM CDT 6:44 PM CDT
Civil Twilight 6:18 AM CDT 7:10 PM CDT
Nautical Twilight 5:47 AM CDT 7:41 PM CDT
Astronomical Twilight 5:16 AM CDT 8:12 PM CDT
Moon 11:45 PM CDT (9/26) 1:34 PM CDT (9/26)
Length of Visible Light 12h 51m
Length of Day
11h 58m
Waning Gibbous, 54% of the Moon is Illuminated
Sep 26
Waning Gibbous
Sep 26
Last Quarter
Oct 4
New
Oct 11
First Quarter
Oct 18
Full

Hourly Weather History & Observations

Time (CDT) Temp. Heat Index Dew Point Humidity Pressure Visibility Wind Dir Wind Speed Gust Speed Precip Events Conditions
12:15 AM 61.7 °F - 59.9 °F 94% 29.91 in 10.0 mi Calm Calm - N/A   Clear
12:35 AM 60.1 °F - 59.0 °F 96% 29.91 in 7.0 mi Calm Calm - N/A   Clear
12:55 AM 61.7 °F - 60.8 °F 97% 29.91 in 10.0 mi Calm Calm - N/A   Clear
1:15 AM 60.1 °F - 59.0 °F 96% 29.91 in 7.0 mi Calm Calm - N/A   Clear
1:35 AM 59.9 °F - 59.2 °F 97% 29.92 in 7.0 mi Calm Calm - N/A   Clear
1:55 AM 58.5 °F - 57.6 °F 97% 29.92 in 7.0 mi Calm Calm - N/A   Clear
2:15 AM 58.1 °F - 57.6 °F 98% 29.92 in 7.0 mi Calm Calm - N/A   Clear
2:35 AM 59.9 °F - 59.4 °F 98% 29.93 in 7.0 mi Calm Calm - N/A   Clear
2:55 AM 60.1 °F - 59.2 °F 97% 29.94 in 7.0 mi Calm Calm - N/A   Clear
3:15 AM 59.9 °F - 59.0 °F 97% 29.94 in 7.0 mi NNE 3.5 mph - N/A   Clear
3:35 AM 59.9 °F - 58.8 °F 96% 29.94 in 7.0 mi North 3.5 mph - N/A   Clear
3:55 AM 59.7 °F - 58.6 °F 96% 29.95 in 7.0 mi Calm Calm - N/A   Clear
4:15 AM 59.7 °F - 58.8 °F 97% 29.95 in 7.0 mi NNE 3.5 mph - N/A   Clear
4:35 AM 59.4 °F - 58.5 °F 97% 29.96 in 7.0 mi NNE 3.5 mph - N/A   Clear
4:55 AM 59.9 °F - 59.0 °F 97% 29.96 in 7.0 mi Calm Calm - N/A   Clear
5:15 AM 59.2 °F - 58.1 °F 96% 29.97 in 7.0 mi NE 3.5 mph - N/A   Clear
5:35 AM 58.6 °F - 57.4 °F 96% 29.97 in 5.0 mi Calm Calm - N/A   Clear
5:55 AM 57.0 °F - 56.3 °F 97% 29.98 in 5.0 mi Calm Calm - N/A   Clear
6:15 AM 56.1 °F - 55.4 °F 97% 29.98 in 4.0 mi Calm Calm - N/A   Clear
6:35 AM 57.2 °F - 56.7 °F 98% 29.99 in 5.0 mi Calm Calm - N/A   Clear
6:55 AM 57.4 °F - 56.8 °F 98% 29.99 in 4.0 mi Calm Calm - N/A   Clear
7:15 AM 57.2 °F - 56.7 °F 98% 30.00 in 3.0 mi Calm Calm - N/A   Clear
7:35 AM 58.8 °F - 58.3 °F 98% 30.01 in 4.0 mi Calm Calm - N/A   Clear
7:55 AM 59.9 °F - 58.6 °F 96% 30.02 in 5.0 mi Calm Calm - N/A   Clear
8:15 AM 61.7 °F - 59.0 °F 91% 30.02 in 7.0 mi Calm Calm - N/A   Clear
8:52 AM 64.4 °F - 60.8 °F 88% 30.03 in 10.0 mi ENE 3.5 mph - N/A   Clear
8:55 AM 65.3 °F - 60.4 °F 84% 30.03 in 10.0 mi Calm Calm - N/A   Clear
9:15 AM 67.8 °F - 61.0 °F 79% 30.03 in 10.0 mi East 3.5 mph - N/A   Clear
9:35 AM 69.8 °F - 61.3 °F 74% 30.04 in 10.0 mi Calm Calm - N/A   Clear
9:55 AM 71.4 °F - 60.6 °F 69% 30.04 in 10.0 mi Calm Calm - N/A   Clear
10:15 AM 74.1 °F - 61.0 °F 63% 30.04 in 10.0 mi East 3.5 mph - N/A   Clear
10:35 AM 75.0 °F - 59.9 °F 59% 30.04 in 10.0 mi East 3.5 mph - N/A   Clear
10:55 AM 76.1 °F - 60.1 °F 57% 30.04 in 10.0 mi ENE 3.5 mph - N/A   Clear
11:15 AM 77.0 °F - 58.6 °F 53% 30.03 in 10.0 mi Calm Calm - N/A   Clear
11:35 AM 78.4 °F - 58.8 °F 51% 30.03 in 10.0 mi East 9.2 mph - N/A   Clear
11:55 AM 78.8 °F - 55.8 °F 45% 30.02 in 10.0 mi NE 5.8 mph - N/A   Clear
12:15 PM 79.5 °F - 56.1 °F 44% 30.02 in 10.0 mi ENE 8.1 mph - N/A   Clear
12:35 PM 79.2 °F - 57.6 °F 47% 30.02 in 10.0 mi NNE 5.8 mph - N/A   Clear
12:55 PM 79.2 °F - 56.3 °F 45% 30.02 in 10.0 mi ENE 4.6 mph - N/A   Clear
1:15 PM 80.6 °F 80.5 °F 55.2 °F 42% 30.01 in 10.0 mi North 4.6 mph - N/A   Clear
1:35 PM 80.8 °F 80.6 °F 55.2 °F 41% 30.01 in 10.0 mi East 8.1 mph - N/A   Clear
1:55 PM 80.4 °F 80.3 °F 54.7 °F 41% 30.01 in 10.0 mi East 6.9 mph - N/A   Clear
2:15 PM 81.7 °F 80.9 °F 53.2 °F 37% 30.00 in 10.0 mi NE 6.9 mph - N/A   Clear
2:35 PM 81.9 °F 81.1 °F 53.8 °F 38% 30.00 in 10.0 mi Calm Calm - N/A   Clear
2:55 PM 81.7 °F 80.9 °F 53.2 °F 37% 30.00 in 10.0 mi NE 3.5 mph - N/A   Clear
3:15 PM 81.5 °F 80.8 °F 53.4 °F 38% 29.99 in 10.0 mi Calm Calm - N/A   Clear
3:35 PM 81.9 °F - 52.7 °F 36% 29.99 in 10.0 mi Calm Calm - N/A   Clear
3:55 PM 81.9 °F - 52.3 °F 36% 29.99 in 10.0 mi ENE 6.9 mph - N/A   Clear
4:15 PM 82.4 °F - 52.5 °F 35% 29.99 in 10.0 mi ENE 5.8 mph - N/A   Clear
4:35 PM 81.5 °F - 51.8 °F 36% 29.99 in 10.0 mi Calm Calm - N/A   Clear
4:55 PM 81.3 °F - 52.2 °F 36% 30.00 in 10.0 mi ENE 4.6 mph - N/A   Clear
5:15 PM 81.0 °F - 50.9 °F 35% 30.00 in 10.0 mi ENE 4.6 mph - N/A   Clear
5:35 PM 81.0 °F - 51.8 °F 36% 30.00 in 10.0 mi ENE 4.6 mph - N/A   Clear
5:55 PM 79.3 °F - 53.2 °F 40% 30.00 in 10.0 mi ENE 3.5 mph - N/A   Clear
6:15 PM 77.5 °F - 53.8 °F 44% 30.01 in 10.0 mi East 4.6 mph - N/A   Clear
6:35 PM 75.0 °F - 54.7 °F 49% 30.01 in 10.0 mi East 4.6 mph - N/A   Clear
6:55 PM 73.0 °F - 53.8 °F 51% 30.01 in 10.0 mi East 3.5 mph - N/A   Clear
7:50 PM 66.2 °F - 55.4 °F 68% 30.02 in 10.0 mi Calm Calm - N/A   Clear
8:10 PM 64.4 °F - 55.4 °F 73% 30.03 in 10.0 mi Calm Calm - N/A   Clear
8:15 PM 63.9 °F - 55.4 °F 74% 30.03 in 10.0 mi Calm Calm - N/A   Clear
8:50 PM 62.6 °F - 55.4 °F 77% 30.04 in 10.0 mi Calm Calm - N/A   Clear
9:11 PM 60.8 °F - 53.6 °F 77% 30.04 in 10.0 mi Calm Calm - N/A   Clear
9:30 PM 59.0 °F - 53.6 °F 82% 30.04 in 10.0 mi Calm Calm - N/A   Clear
10:10 PM 62.6 °F - 51.8 °F 68% 30.05 in 7.0 mi East 5.8 mph - N/A   Clear
10:30 PM 64.4 °F - 51.8 °F 64% 30.05 in 10.0 mi East 5.8 mph - N/A   Clear
10:35 PM 64.2 °F - 50.7 °F 61% 30.05 in 10.0 mi East 4.6 mph - N/A   Clear
10:55 PM 62.4 °F - 50.9 °F 66% 30.05 in 10.0 mi East 3.5 mph - N/A   Clear
11:15 PM 59.5 °F - 51.1 °F 74% 30.05 in 5.0 mi East 3.5 mph - N/A   Haze
11:50 PM 57.2 °F - 51.8 °F 82% 30.06 in 10.0 mi Calm Calm - N/A   Clear